Время (UTC), дата Ветер
(°,м/с) 
Видим.   Явления Облачность Т
(°С)
Тd
(°С)
f(%) Тe
(°С)
Pmin
(гПа)
dP
(гПа)
Po
(мм)
O2
(г/м3)
Тmin Tmax R s Состояние
почвы
00 01.10.12 360 (С) >10 км    ясно 
+8.7 +3.6 70 +10  1014.9  0.8  754  294  +2         
03 01.10.12 290 (З) >10 км    ясно 
+14.7 +6.2 57 +16  1013.7  -0.9  753  287           
06 01.10.12 160 (Ю) >10 км    1/0 верхняя 
[Ci]
+19 +2.6 34 +21  1012.7  -0.9  753  283           
12 01.10.12 тихо ()   >10 км    4/0 верхняя 
[Cs]
+7 +5.4 90 +7  1014.6  0.9  754  295           
15 01.10.12 тихо ()   >10 км    10/0 верхняя 
[Cs]
+5.2 +4.7 97 +5  1015.8  1.1  755  298           
18 01.10.12 тихо ()   >10 км  туман поземный  3/0 верхняя 
[Ci fib]
+3.7 +3.2 96 +4  1016.3  0.5  755  300           
21 01.10.12 340 (С) >10 км  местами туман поземный  1/0 верхняя 
[Ci fib]
+2.7 +2.4 98 +3  1017.1  0.8  756  301  +2.5        влажная 
00 02.10.12 360 (С) >10 км    ясно 
+9.8 +5.2 73 +11  1018  756  293  +2         
03 02.10.12 230 (ЮЗ) >10 км    ясно 
+20 +6 40 +20  1017.1  -0.5  756  283           
06 02.10.12 200 (Ю) >10 км    1/1 1000 м 
[Cu med, cong]
+22.2 +5.8 34 +22  1015.8  -1.2  755  280           
12 02.10.12 340 (С) >10 км    3/0 верхняя 
[Ci fib]
+9.2 +6.4 83 +10  1017.2  0.9  756  294           
15 02.10.12 тихо ()   >10 км    3/0 верхняя 
[Ci fib]
+5.9 +4.7 92 +6  1017.3  756  297           
18 02.10.12 250 (З) >10 км    4/0 верхняя 
[Ci]
+4.4 +3.9 97 +5  1017.3  756  299           
00 03.10.12 050 (СВ) >10 км    3/0 верхняя 
[Ci fib]
+9 +5.5 79 +10  1017.6  0.2  756  294           
03 03.10.12 180 (Ю) >10 км    1/0 средняя 
[Ac trans]
+18.4 +5.8 44 +20  1015.8  -1.4  755  284           
06 03.10.12 180 (Ю) >10 км    4/1 600 м кучево-дожд., средняя, верхняя 
[Cb cap|Ac cuf|Ci fib]
+19.7 +5.5 39 +21  1014.2  -1.6  754  282           
12 03.10.12 тихо ()   >10 км    9/0 средняя, верхняя 
[Ac lent|Ci]
+9.3 +7.2 87 +9  1014.7  0.4  754  293           
15 03.10.12 360 (С) >10 км    9/0 средняя, верхняя 
[Ac lent|Ci]
+7.5 +6 90 +8  1014  -0.6  753  294           
18 03.10.12 360 (С) >10 км    8/0 средняя, верхняя 
[Ac lent|Ci fib]
+5.7 +4.5 92 +7  1013.7  -0.4  753  297           
21 03.10.12 тихо ()   >10 км  местами туман поземный  3/0 средняя, верхняя 
[Ac lent|Ci fib]
+3.9 +3.7 99 +4  1013.9  0.2  753  299  +3.3        влажная 
00 04.10.12 110 (В) >10 км    10/0 средняя, верхняя 
[Ac trans|Cs]
+10.1 +6.7 79 +10  1013.7  -0.1  753  292           
03 04.10.12 110 (В) >10 км    10/0 средняя, верхняя 
[Ac trans|Cc]
+17 +7.2 52 +18  1011.8  -1.6  752  284           
06 04.10.12 160 (Ю) >10 км    10/8 600 м кучево-дожд., средняя 
[Cb cap|Ac As]
+18.4 +5.8 44 +19  1009.8  -2  751  282           
09 04.10.12 110 (В) >10 км    10/6 600 м кучево-дожд., средняя 
[Cb cap|Ac lent]
+14.6 +6.6 59 +16  1009.1  -0.8  750  286    +19.5       
12 04.10.12 тихо ()   >10 км    10/6 600 м кучево-дожд., средняя, верхняя 
[Cb cap|Ac lent|Ci fib]
+11.2 +4.8 65 +11  1008.8  -0.5  750  289           
15 04.10.12 180 (Ю) >10 км  гроза без осадков  10/10 600 м 
+10 +5.2 72 +11  1008.8  750  291           
18 04.10.12 250 (З) 4900 м  {гроза}  10/6 600 м кучево-дожд., средняя 
[Cb cap|Ac trans]
+8.9 +5.4 79 +10  1007.9  -0.9  749  291           
21 04.10.12 110 (В) >10 км  туман поземный  3/0 средняя 
[Ac lent]
+6.8 +6.4 97 +8  1008.1  0.2  749  293  +6.7    0.0    влажная 
00 05.10.12 250 (З) 10 км  {туман}  8/8 600 м кучево-дожд., верхняя 
[Cb cap|Cc]
+11.6 +9.2 85 +12  1008.8  0.9  750  288  +5.5         
03 05.10.12 250 (З) >10 км  слаб. ливневой дождь  10/8 600 м кучево-дожд., средняя 
[Cb cap|Ac As]
+13.2 +8 71 +13  1008.7  -0.1  750  287           
06 05.10.12 270 (З) >10 км  {ливн. осадки}  10/8 600 м кучево-дожд., средняя 
[Cb cap|Ac As]
+13.6 +8.6 72 +14  1008.5  -0.2  749  286           
12 05.10.12 250 (З) 4000 м  дымка{ливн. осадки}  10/0 средняя 
[Ac As]
+10.4 +9.8 96 +13  1010  0.6  750  290           
15 05.10.12 020 (С) 10 км  в посл. час ливневой дождь  9/0 кучево-дожд., средняя 
[Cb cap|Ac As]
+9.9 +9.5 97 +11  1010.6  0.6  751  290           
18 05.10.12 090 (В) 10 км  {ливн. осадки}  9/0 средняя 
[Ac trans]
+7.8 +7.6 99 +9  1011.6  757  295           
00 06.10.12 230 (ЮЗ) >10 км    3/0 средняя 
[St|Ac lent]
+11.4 +7 74 +11  1013.8  1.1  753  290           
03 06.10.12 320 (СЗ) >10 км    3/0 средняя 
[Ac lent]
+12.2 +2.3 51 +12  1014.5  0.6  754  290           
06 06.10.12 340 (С) 3{10}  >10 км    3/0 средняя 
[Ac trans]
+13.6 -1.8 34 +14  1014.6  0.1  754  290           
12 06.10.12 320 (СЗ) 1{10}  >10 км    ясно 
+6.4 -2.7 52 +7  1018.8  1.8  757  298           
15 06.10.12 290 (З) >10 км    ясно 
+4.5 -4 54 +5  1019.9  1.1  758  301           
18 06.10.12 250 (З) >10 км    ясно 
+0 -3 80 +1  1021.1  758  306           
00 07.10.12 340 (С) >10 км    ясно 
+8.2 -4.9 39 +8  1022  0.5  759  298           
03 07.10.12 320 (СЗ) 4-11{11}  >10 км    ясно 
+11.3 -5.8 30 +11  1021.4  -0.6  759  294           
06 07.10.12 320 (СЗ) >10 км    1/0 верхняя 
[Ci fib]
+12.4 -7.9 23 +12  1020.2  -1  758  293           
12 07.10.12 360 (С) >10 км    ясно 
+3.9 -9.9 36 +3  1023  760  303           
15 07.10.12 тихо ()   >10 км    ясно 
+1.1 -8.2 50 +1  1023.6  0.4  760  306           
18 07.10.12 250 (З) >10 км    ясно 
-1.8 -8.3 61 -1  1023.6  760  309           
00 08.10.12 тихо ()   >10 км    1/0 верхняя 
[Ci fib]
+2.8 -5.2 56 +3  1023.1  760  304  -5.1         
03 08.10.12 250 (З) >10 км    6/0 верхняя 
[Cs]
+9.6 -6.8 31 +11  1021.6  -1.4  759  296           
06 08.10.12 230 (ЮЗ) >10 км    10/0 средняя, верхняя 
[As trans|Cs]
+13 -6.5 25 +13  1018.8  -2.6  757  292           
12 08.10.12 тихо ()   >10 км    9/0 средняя 
[Ac trans]
+6.6 +1.1 68 +7  1018.9  0.2  757  298           
15 08.10.12 050 (СВ) >10 км    8/0 средняя, верхняя 
[Ac As|Ci fib]
+4.4 -1.7 64 +5  1019.2  0.3  757  300           
18 08.10.12 050 (СВ) >10 км    1/0 средняя 
[Ac lent]
+3 -2.8 66 +4  1019.1  -0.1  757  302           
00 09.10.12 090 (В) >10 км    1/0 верхняя 
[Ci fib]
+5 -2.2 60 +5  1020.6  0.6  758  300  +0.5         
03 09.10.12 110 (В) >10 км    3/0 средняя 
[Ac trans]
+13.1 -1.6 36 +13  1018.9  -1.4  757  291           
06 09.10.12 140 (ЮВ) >10 км    5/0 средняя, верхняя 
[Ac trans|Ci fib]
+16.2 +0.5 34 +17  1017.3  -1.6  756  287           
12 09.10.12 110 (В) >10 км    10/0 средняя, верхняя 
[Ac und|Ci fib]
+10.1 +0.6 52 +10  1017.5  756  294           
15 09.10.12 070 (В) >10 км    10/0 средняя 
[Ac As]
+8.9 +1.7 61 +10  1016.5  -1  755  294           
18 09.10.12 090 (В) >10 км    10/0 средняя 
[Ac As]
+8 +2 66 +9  1015.3  -1.2  754  295           
21 09.10.12 180 (Ю) >10 км    10/10 1350 м 
[Sc]
+7.4 +1.8 68 +7  1014.7  -0.6  754  295  +5.1        сухая 
00 10.10.12 110 (В) 4000 м  слаб. дождь  10/3 600 м средняя 
[Frnb|Ac As]
+6.6 +5 90 +6  1014.8  0.1  754  296           
06 10.10.12 180 (Ю) >10 км  слаб. дождь  10/9 1000 м средняя 
[Sc|Ac As]
+14.8 +5.6 54 +15  1010.8  -2  751  286           
12 10.10.12 110 (В) 10 км  слаб. дождь  10/10 600 м 
[Ns]
+10.2 +9.6 96 +11  1011.5  752  290           
18 10.10.12 160 (Ю) 10 км  слаб. дождь  10/10 300 м 
[Frnb|Ns]
+5 +4.8 99 +6  1011.2  -0.4  751  297           
00 11.10.12 360 (С) 4000 м  дождь  10/10 300 м 
[Frnb|Ns]
+4.7 +4.5 99 +4  1011.4  0.2  751  297           
03 11.10.12 360 (С) 4000 м  дождь  10/10 300 м 
[Frnb|Ns]
+6 +5.8 99 +5  1010.9  -0.5  751  295           
06 11.10.12 360 (С) 4000 м  слаб. дождь  10/10 300 м 
[Frnb|Ns]
+6.9 +6.5 97 +8  1010.8  751  294           
09 11.10.12 360 (С) 4000 м  слаб. дождь  10/10 450 м 
[Frnb|Ns]
+6.7 +6.3 97 +6  1011.6  0.8  752  295    +7  28     
12 11.10.12 360 (С) 4000 м  слаб. дождь  10/10 210 м 
[Frnb|Ns]
+6 +5.3 95 +5  1012.2  0.5  752  296           
15 11.10.12 360 (С) 4000 м  слаб. дождь  10/10 420 м 
[Frnb|Ns]
+5.1 +4.6 97 +4  1012.6  0.4  752  297           
18 11.10.12 360 (С) 4000 м  слаб. дождь  10/10 400 м 
[Frnb|Ns]
+4.5 +4 97 +3  1013  0.4  753  298           
21 11.10.12 360 (С) 10 км  в посл. час дождь  10/10 750 м 
[Sc]
+6.2 +5.3 94 +5  1013.5  0.5  753  296  +4.4      мокрая 
00 12.10.12 360 (С) >10 км  {дождь}  10/6 600 м кучево-дожд., средняя 
[Cb cap|Ac As]
+7.4 +5.6 88 +7  1014.6  1.1  754  295           
03 12.10.12 050 (СВ) >10 км    10/8 600 м кучево-дожд., средняя 
[Cb cap|Ac As]
+9.6 +6.6 82 +10  1014.6  754  292           
06 12.10.12 140 (ЮВ) >10 км  слаб. ливневой дождь  10/6 600 м кучево-дожд., средняя 
[Cb cap|Ac As]
+10.7 +4.2 64 +12  1014.8  0.2  754  292           
12 12.10.12 090 (В) >10 км  {ливн. осадки}  5/3 1000 м средняя 
[Sc|Ac trans]
+8 +2.2 67 +8  1017.3  1.7  756  296           
15 12.10.12 360 (С) >10 км    10/0 средняя 
[Ac As]
+7.2 +1.5 67 +7  1017.9  0.6  756  297           
18 12.10.12 050 (СВ) >10 км    10/0 средняя 
[Ac As]
+6.5 +1.5 70 +7  1018.4  0.4  757  298           
00 13.10.12 360 (С) >10 км    9/0 средняя, верхняя 
[Ac trans|Cs]
+5.5 +3.8 89 +6  1018.6  757  298           
03 13.10.12 140 (ЮВ) >10 км    4/4 1000 м 
[Cu hum]
+10.6 +2.2 56 +10  1016.8  -1.7  755  293           
06 13.10.12 140 (ЮВ) >10 км    4/4 1000 м 
[Cu med, cong]
+11.6 +1.5 50 +11  1015  -1.8  754  291           
09 13.10.12 110 (В) >10 км    9/9 1000 м 
[Sc diur, vesp]
+9.5 +2.2 60 +11  1014.3  -0.6  754  293           
12 13.10.12 110 (В) >10 км    9/6 1000 м средняя 
[Sc diur, vesp|Ac lent]
+6.5 +3.2 79 +6  1014.3  -0.1  754  296           
15 13.10.12 110 (В) 10 км  слаб. дождь  10/8 1000 м средняя 
[Sc|Ac lent]
+6.6 +4.8 88 +6  1013.6  -0.6  753  296           
18 13.10.12 110 (В) 10 км  слаб. дождь  10/10 750 м 
[Ns]
+4.2 +3.5 95 +3  1012.9  -0.8  753  298           
21 13.10.12 110 (В) 10 км  слаб. дождь  10/10 570 м 
[Ns]
+3.6 +3.4 99 +3  1012.3  -0.6  752  299  +3.2      мокрая 
00 14.10.12 110 (В) 3{11}  10 км  слаб. дождь  10/10 420 м 
[Frnb|Ns]
+3.4 +2.9 97 +2  1011.3  -1  751  299  +2.8         
06 14.10.12 050 (СВ) 2{10}  10 км  слаб. дождь{морось}  10/10 240 м 
[Frnb|Ns]
+4 +3.5 97 +4  1010.4  -0.8  751  298           
09 14.10.12 340 (С) >10 км  в посл. час дождь  10/10 400 м 
[Frnb]
+3.6 +3.1 97 +4  1010.8  0.4  751  298    +4.4  11     
12 14.10.12 тихо ()   >10 км  {дождь}  9/9 420 м 
[St]
+3.5 +3 96 +4  1010.9  0.1  751  298           
18 14.10.12 290 (З) >10 км  {дождь}  9/0 средняя 
[Ac As]
+2.4 +2.1 98 +3  1009.9  -0.5  750  299           
00 15.10.12 290 (З) >10 км    3/1 300 м средняя 
[St|Ac lent]
+5.8 +2.4 79 +4  1011.4  0.8  751  296           
06 15.10.12 320 (СЗ) 7-11{11}  >10 км    6/5 600 м кучево-дожд., средняя 
[Cb calv|Ac lent]
+8.6 +0.1 55 +6  1011.8  752  294           
12 15.10.12 320 (СЗ) 3{10}  >10 км    8/0 средняя 
[Ac lent]
+4.2 -1 69 +3  1013.7  0.8  753  299           
18 15.10.12 270 (З) >10 км    ясно 
+2.4 -0.6 81 1015.3  754  301           
00 16.10.12 290 (З) >10 км    4/0 средняя 
[Ac cast]
+4.2 -1.9 64 +2  1017.2  1.1  756  300           
03 16.10.12 360 (С) 4{11}  >10 км    8/0 средняя, верхняя 
[Ac cast|Ci]
+7.6 -5.1 40 +6  1016.9  -0.2  756  297           
06 16.10.12 320 (СЗ) >10 км    8/0 средняя, верхняя 
[Ac cuf|Ci]
+8.7 -3.3 43 +8  1015  -1.9  754  295           
09 16.10.12 270 (З) >10 км    9/0 средняя, верхняя 
[Ac lent|Cc]
+5.1 -3.1 55 +5  1015  -0.1  754  299    +9.7       
12 16.10.12 тихо ()   >10 км    10/0 
+4 +0.3 77 +4  1013  -1.9  753  299           
18 16.10.12 090 (В) 10 км  слаб. дождь  10/10 240 м 
[Frnb|Ns]
+2.5 +0.9 89 +1  1005.9  -4.1  747  298           
21 16.10.12 090 (В) 4000 м  дождь  10/10 300 м 
[Frnb|Ns]
+2.5 +2.5 100 +1  1001.2  -4.6  744  297  +1.3    14    мокрая 
00 17.10.12 140 (ЮВ) 4000 м  слаб. дождь  10/10 300 м 
[Frnb|Ns]
+3.5 +3.3 99 +4  999.3  -1.9  742  295           
06 17.10.12 320 (СЗ) 6-10{11}  >10 км  {дождь}  9/9 1350 м 
[Sc]
+4.3 -3.2 58 +2  1002.2  3.1  745  296           
12 17.10.12 270 (З) >10 км    3/0 средняя 
[Ac trans]
-1.3 -3 88 -2  1005.5  0.8  747  303           
15 17.10.12 тихо ()   >10 км    ясно 
-2.4 -3.6 91 -2  1005.1  -0.4  747  304           
18 17.10.12 тихо ()   >10 км    9/0 средняя 
[Ac As]
-2 -3.8 87 -2  1003.7  -1.3  746  303           
00 18.10.12 250 (З) >10 км    9/0 верхняя 
[Cc]
+0.7 -2.2 81 1003.6  0.5  746  300           
03 18.10.12 250 (З) >10 км  в посл. час ливневой снег  9/9 600 м кучево-дожд., верхняя 
[Cb cap|Ci fib]
+2.9 -3.6 62 1002.4  -1  745  297           
06 18.10.12 290 (З) 6-11{13}  >10 км  {ливн. осадки}  9/3 600 м кучево-дожд., средняя, верхняя 
[Cb cap|Ac lent|Cc]
+3.8 -3.1 61 +1  1002.3  -0.1  745  296           
09 18.10.12 290 (З) 5-10{10}  >10 км    3/3 600 м кучево-дожд., средняя 
[Cb cap|Ac lent]
+0.9 -6.4 58 -2  1004.4  1.9  746  300    +5.4  0.0     
12 18.10.12 290 (З) 4{10}  >10 км    10/10 600 м кучево-дожд. 
[Cb cap]
+0.3 -5.3 66 -2  1005.7  1.2  747  301           
15 18.10.12 290 (З) 4{10}  >10 км    9/8 1000 м средняя 
[Sc|Ac trans]
-1.5 -6.7 68 -4  1005.5  -0.2  747  303           
18 18.10.12 270 (З) >10 км    3/0 средняя 
[Ac lent]
-20.7 -7.6 100 -27  1005.3  -0.2  747  326           
00 19.10.12 320 (СЗ) 6-10{10}  >10 км    1/0 средняя 
[Ac lent]
-0.5 -8 57 -4  1006.7  1.1  748  303  -3.2         
06 19.10.12 320 (СЗ) 5-11{14}  >10 км    8/5 600 м кучево-дожд., средняя 
[Cb cap|Ac cuf]
+2.7 -8 45 1005.8  747  299           
12 19.10.12 290 (З) 4{11}  >10 км    3/0 средняя 
[Ac lent]
+0.8 -8.1 51 -2  1008.3  0.6  749  302           
15 19.10.12 290 (З) >10 км    3/0 средняя 
[Ac lent]
+0.4 -8.3 52 -1  1008.3  749  302           
18 19.10.12 270 (З) >10 км    3/0 средняя 
[Ac lent]
-1.6 -8 62 -3  1008.8  0.5  749  305           
00 20.10.12 320 (СЗ) >10 км    ясно 
+1.2 -7 54 -1  1009.4  750  302  -4.2         
03 20.10.12 360 (С) >10 км    8/8 600 м кучево-дожд. 
[Cb cap]
+4.9 -6.6 43 +3  1007.3  -1.9  748  297           
06 20.10.12 360 (С) 4-12{12}  >10 км    8/8 600 м кучево-дожд. 
[Cb cap]
+2.4 -8 46 1008.3  749  300           
12 20.10.12 320 (СЗ) >10 км    9/9 600 м кучево-дожд. 
[Cb cap]
+0 -7.7 56 -2  1011.3  1.4  751  303           
15 20.10.12 340 (С) >10 км    4/0 средняя 
[Ac lent]
-1.3 -8 60 -4  1011.9  0.6  752  305           
18 20.10.12 250 (З) >10 км    ясно 
-2.4 -7.2 70 -3  1013  1.1  752  307           
00 21.10.12 320 (СЗ) >10 км    9/3 1000 м средняя, верхняя 
[Cu hum|Ac lent|Cc]
+0.4 -6.2 61 -2  1015.5  754  304           
06 21.10.12 320 (СЗ) 5-11{13}  >10 км    9/4 600 м кучево-дожд., средняя, верхняя 
[Cb cap|Ac cast|Ci fib]
+1.8 -7.6 50 -1  1016.8  755  303           
12 21.10.12 360 (С) >10 км    1/0 верхняя 
[Cc]
-1.7 -8.2 61 -4  1019  1.1  757  308           
15 21.10.12 090 (В) >10 км    ясно 
-3 -8.8 64 -4  1019.4  0.2  757  309           
18 21.10.12 340 (С) >10 км    ясно 
-4.6 -8.9 72 -4  1019.2  -0.2  757  311           
00 22.10.12 050 (СВ) >10 км    1/0 верхняя 
[Ci fib]
-3.6 -8.4 69 -3  1019  -0.2  757  310  -8.1         
03 22.10.12 360 (С) >10 км    3/0 средняя, верхняя 
[Ac lent|Ci fib]
+1.7 -8.7 46 +2  1016.2  -2.6  755  303           
06 22.10.12 360 (С) >10 км    3/0 средняя, верхняя 
[Ac lent|Ci fib]
+3.9 -8.3 41 +3  1014.3  -1.7  754  300           
12 22.10.12 тихо ()   >10 км    ясно 
-4.8 -8.4 76 -5  1013  -0.4  752  309           
15 22.10.12 360 (С) >10 км    ясно 
-5.5 -8.1 82 -7  1011.2  -1.8  751  310           
18 22.10.12 360 (С) >10 км    ясно 
-6.6 -8.2 88 -8  1010.2  -1  750  311           
00 23.10.12 050 (СВ) >10 км    ясно 
-2.4 -8 65 -3  1010.3  0.6  750  306           
03 23.10.12 070 (В) >10 км    ясно 
+3.3 -8.4 42 +3  1009.4  -0.7  750  299           
06 23.10.12 050 (СВ) >10 км    ясно 
+5.6 -8.7 35 +5  1008.8  -0.6  749  297           
09 23.10.12 360 (С) >10 км    ясно 
+2 -9.6 42 +3  1010  750  301    +6.5       
12 23.10.12 тихо ()   >10 км    ясно 
-0.5 -9.4 51 -1  1011.5  1.5  751  304           
15 23.10.12 290 (З) >10 км    ясно 
-2.9 -8.3 66 -2  1012.2  0.5  752  307           
18 23.10.12 тихо ()   >10 км    ясно 
-6.1 -8 86 -6  1012.7  0.5  752  311           
00 24.10.12 тихо ()   >10 км    3/0 средняя 
[Ac trans]
-1.5 -5.2 76 -2  1013.6  0.5  753  306  -7.8         
03 24.10.12 320 (СЗ) >10 км    8/0 средняя 
[Ac As]
+5 -4.8 49 +6  1013.2  -0.2  753  298           
06 24.10.12 250 (З) >10 км    8/0 средняя, верхняя 
[Ac lent|Cc]
+7.9 -3.8 43 +9  1012  -1.1  752  295           
12 24.10.12 110 (В) >10 км    10/0 средняя, верхняя 
[Ac lent|Cc]
-3.1 -4.8 88 -3  1013.9  0.7  753  307           
15 24.10.12 050 (СВ) >10 км    10/0 средняя 
[Ac und]
-0.1 -1.5 90 +1  1014.2  0.5  753  304           
18 24.10.12 050 (СВ) >10 км    10/10 200 м 
[Ns]
-0.5 -1.7 92 1014.2  753  304           
21 24.10.12 090 (В) >10 км    10/8 210 м средняя, верхняя 
[St|Ac und|Ci fib]
-1.7 -4.8 79 -1  1014.8  0.5  754  306  -3.3        замёрзшая 
00 25.10.12 360 (С) 4000 м  дымка  ясно 
+0.2 -3.3 77 +1  1016.4  1.6  755  304           
03 25.10.12 230 (ЮЗ) 2000 м  мгла  4/0 верхняя 
[Cc]
+6.6 -3.1 50 +8  1015.6  -0.6  755  297           
06 25.10.12 тихо ()   2000 м  мгла  8/3 1000 м средняя 
[Sc|Ac lent]
+8.4 -2.3 47 +8  1015.5  755  295           
12 25.10.12 290 (З) 4000 м  дымка  3/0 средняя 
[Ac trans]
+0 -3.6 77 +1  1018.4  0.9  756  305           
15 25.10.12 270 (З) 4000 м  дымка  ясно 
-0.2 -1.6 90 1019.7  1.3  757  306           
18 25.10.12 340 (С) 4000 м  дымка  ясно 
-3 -3.1 99 -4  1020.9  758  309           
00 26.10.12 360 (С) 4000 м  дымка  ясно 
+0.8 +0 94 +1  1023.6  1.6  760  305           
03 26.10.12 тихо ()   4000 м    1/0 верхняя 
[Ci fib]
+8.6 +3 68 +9  1023.1  -0.2  760  297           
06 26.10.12 250 (З) 10 км    3/0 средняя, верхняя 
[Cu hum|Ac lent|Ci fib]
+13.1 +0.8 43 +13  1021.4  -1.5  759  292           
12 26.10.12 110 (В) 4000 м  дымка  ясно 
+2.8 +0.7 86 +4  1023.1  0.4  760  303           
15 26.10.12 050 (СВ) 4000 м  дымка  ясно 
-0.1 -0.4 98 +1  1023.4  0.1  760  306           
18 26.10.12 050 (СВ) 1000 м  мгла  ясно 
-1 -1 100 1023.3  -0.1  760  308           
00 27.10.12 110 (В) 2000 м  мгла  4/0 средняя 
[Ac trans]
+1.6 +1.1 96 +2  1023.1  -0.2  760  304  -2.4         
03 27.10.12 110 (В) 4000 м  мгла  6/0 средняя, верхняя 
[Ac trans|Cc]
+7.1 +2.3 72 +7  1021.2  -1.6  759  298           
06 27.10.12 160 (Ю) 10 км    10/0 средняя, верхняя 
[Ac lent|Ci fib]
+10.1 +4 66 +10  1019.4  -1.8  757  294           
09 27.10.12 110 (В) 2000 м  мгла  10/8 1000 м средняя 
[Sc|Ac As]
+9.2 +4.2 71 +10  1018.7  -0.7  757  294    +10.6       
12 27.10.12 110 (В) 4000 м  мгла  10/3 1000 м средняя 
[Sc|Ac As]
+8.8 +6.7 87 +9  1017.4  -1.3  756  294           
15 27.10.12 140 (ЮВ) 2000 м  дождь  10/10 600 м 
[Ns]
+8.2 +7.8 97 +8  1016.5  -0.9  755  294           
18 27.10.12 180 (Ю) 2000 м  дождь  10/10 600 м 
[Frnb|Ns]
+8 +7.8 99 +7  1015.5  -1  755  294           
21 27.10.12 180 (Ю) 4000 м  слаб. дождь  10/10 240 м 
[Frnb|Ns]
+7.3 +7.1 99 +7  1015.1  -0.4  754  295  +6.6    13    влажная 
00 28.10.12 180 (Ю) 1000 м  слаб. дождь  10/10 240 м 
[Frnb|Ns]
+6.8 +6.6 99 +6  1015.3  0.2  754  295           
03 28.10.12 180 (Ю) 2000 м  слаб. дождь  10/10 300 м 
[Frnb|Ns]
+7.4 +7.2 99 +7  1014.3  -0.9  754  294           
06 28.10.12 360 (С) 4000 м  слаб. дождь  10/10 300 м 
[Frnb|Ns]
+5.1 +4.6 97 +5  1014.4  754  297           
09 28.10.12 360 (С) 4000 м  слаб. дождь  10/10 450 м 
[Frnb|Ns]
+2 +1.5 97 +1  1016.7  2.2  755  302    +8.1  10     
12 28.10.12 340 (С) 10 км  {дождь}  10/10 1230 м 
[Sc]
+1 -2.5 77 1018.1  1.2  756  304           
15 28.10.12 360 (С) 10 км    6/0 средняя 
[Ac lent]
-1 -5.6 71 -3  1018.4  0.3  756  307           
18 28.10.12 360 (С) 4{10}  10 км    ясно 
-2.2 -8.1 64 -5  1019.2  0.8  757  308           
21 28.10.12 360 (С) 2{10}  10 км    3/0 средняя 
[Ac lent]
-4.1 -10.4 61 -5  1020  0.6  758  311  -4.4    0.1    замёрзшая 
00 29.10.12 360 (С) >10 км    1/0 верхняя 
[Cc]
-2.2 -12.4 45 -4  1019.8  758  309  -4.7         
03 29.10.12 360 (С) >10 км    ясно 
+0 -12 40 -2  1019.1  -0.7  757  306           
06 29.10.12 340 (С) >10 км    1/0 средняя 
[Ac lent]
+0.9 -12.4 36 -1  1018.1  -1  756  305           
12 29.10.12 340 (С) >10 км    8/0 средняя, верхняя 
[Ac lent|Cc]
-5 -14 49 -7  1019.3  0.1  757  312           
15 29.10.12 340 (С) >10 км    ясно 
-6.4 -13.4 58 -9  1018.4  -1.9  756  313           
18 29.10.12 340 (С) >10 км    10/0 верхняя 
[Cs]
-7.7 -13.8 62 -9  1018.1  -0.5  756  315           
00 30.10.12 360 (С) >10 км    9/0 средняя, верхняя 
[Ac lent|Cc]
-6.7 -13.9 56 -9  1016.8  0.1  755  313           
03 30.10.12 360 (С) >10 км    9/0 средняя, верхняя 
[Ac trans|Ci]
-3.7 -13.4 47 -7  1015.8  -1  754  309           
06 30.10.12 360 (С) >10 км    1/0 верхняя 
[Ci fib]
-1.5 -13.3 40 -3  1014.8  -0.8  754  307           
12 30.10.12 340 (С) >10 км    ясно 
-6.4 -14 55 -8  1017.6  1.1  756  313           
15 30.10.12 270 (З) >10 км    ясно 
-8.3 -13.5 66 -8  1018  0.2  756  315           
18 30.10.12 270 (З) >10 км    ясно 
-11.2 -15.8 69 -13  1017.7  -0.3  756  319           
21 30.10.12 320 (СЗ) >10 км    ясно 
-11.8 -14.8 78 -12  1018.3  0.6  756  320  -12.1        замёрзшая 
00 31.10.12 340 (С) >10 км    9/0 средняя, верхняя 
[Ac lent|Cs]
-10.1 -13.3 77 -10  1019.3  757  318  -12.4         
03 31.10.12 250 (З) >10 км    8/0 верхняя 
[Ci fib]
-4.9 -12.7 54 -6  1019.4  0.3  757  312           
06 31.10.12 тихо ()   >10 км    1/0 верхняя 
[Cc]
-3.1 -2.9 100 -3  1019.4  757  309           
12 31.10.12 070 (В) >10 км    ясно 
-8.4 -11.7 77 -10  1022.5  1.3  759  317           
15 31.10.12 360 (С) >10 км    ясно 
-10.2 -12.9 80 -10  1023.7  1.2  760  319           
18 31.10.12 360 (С) >10 км    ясно 
-11.8 -13.4 88 -14  1024.5  0.8  761  322           
00 01.11.12 070 (В) >10 км    ясно 
-9.4 -12.9 76 -11  1026.1  1.1  762  319  -13         
03 01.11.12 090 (В) >10 км    ясно 
-3.6 -10.6 58 -3  1025.2  -0.7  761  312           
06 01.11.12 340 (С) >10 км    ясно 
-1 -10.7 48 1024  -0.9  761  309           
09 01.11.12 тихо ()   >10 км    ясно 
-4.9 -10.7 64 -5  1024.7  0.5  761  313    -0.1       
12 01.11.12 360 (С) >10 км    ясно 
-5.7 -11.9 62 -5  1024.7  761  314           
15 01.11.12 360 (С) >10 км    8/0 верхняя 
[Ci]
-5.3 -12.3 58 -7  1024.2  -0.5  761  314           
18 01.11.12 020 (С) >10 км    10/0 верхняя 
[Cs]
-7.5 -12.9 65 -7  1024.2  761  316           
00 02.11.12 050 (СВ) >10 км    4/0 средняя, верхняя 
[Ac lent|Cc]
-6 -9.9 74 -7  1023.6  760  314  -9.9         
03 02.11.12 320 (СЗ) >10 км    8/0 средняя, верхняя 
[Ac lent|Cc]
+1.8 -7.1 52 +1  1022.2  -1.2  759  305           
06 02.11.12 340 (С) >10 км    5/0 средняя, верхняя 
[Ac lent|Ci]
+6.5 -4.4 46 +6  1020.4  -1.6  758  299           
12 02.11.12 360 (С) >10 км    ясно 
+0.4 -6.6 59 1022.6  0.8  760  306           
15 02.11.12 250 (З) >10 км    ясно 
-2.2 -8.5 62 -2  1022.5  -0.1  760  309           
18 02.11.12 250 (З) >10 км    ясно 
-5.8 -10.6 69 -5  1023.6  0.9  760  314           
00 03.11.12 360 (С) >10 км    1/0 средняя 
[Ac lent]
-1.6 -5 78 -3  1025  1.4  761  309           
03 03.11.12 360 (С) >10 км    3/0 средняя, верхняя 
[Ac lent|Ci fib]
+5.2 -1.9 60 +5  1023.6  -1.1  761  301           
06 03.11.12 360 (С) >10 км    3/0 средняя, верхняя 
[Ac lent|Cc]
+8.9 -1.5 48 +10  1023  -0.5  760  297           
12 03.11.12 360 (С) >10 км    10/0 средняя 
[Ac As]
+2.7 -2.5 69 +3  1025.7  1.4  762  304           
15 03.11.12 050 (СВ) >10 км    1/0 средняя 
[Ac trans]
+0.2 -4.2 72 +1  1026.2  0.3  762  307           
18 03.11.12 050 (СВ) >10 км    6/0 средняя 
[Ac trans]
-1.3 -4.9 77 -2  1026.7  0.5  763  309           
00 04.11.12 360 (С) >10 км    4/0 средняя, верхняя 
[Ac lent|Ci fib]
-1.2 -3.5 84 -2  1027.7  0.7  763  309  -3.6         
03 04.11.12 020 (С) >10 км    ясно 
+5.8 -1.2 61 +7  1027  -0.5  763  301           
06 04.11.12 200 (Ю) >10 км    6/0 верхняя 
[Ci fib]
+8.3 -1 52 +8  1025.9  -1  762  298           
12 04.11.12 200 (Ю) >10 км    ясно 
-1.2 -3.2 86 -1  1025.8  762  309           
15 04.11.12 тихо ()   >10 км    ясно 
-3.6 -9.4 64 -4  1026  762  312           
18 04.11.12 360 (С) >10 км    ясно 
-2.4 -4 89 -2  1024.9  -0.9  761  310           
21 04.11.12 тихо ()   >10 км    ясно 
-4.6 -5.2 96 -5  1024.7  -0.3  761  313  -4.9         
00 05.11.12 020 (С) >10 км    10/0 средняя, верхняя 
[Ac lent|Ci fib]
-2.6 -2.9 98 -2  1024.2  -0.3  761  310  -5.5         
03 05.11.12 тихо ()   >10 км    9/0 средняя, верхняя 
[Ac As|Ci fib]
+2.2 -1.8 75 +2  1022.9  -1.1  760  304           
06 05.11.12 180 (Ю) >10 км    9/0 средняя, верхняя 
[Ac As|Ci fib]
+6.3 -1.8 56 +7  1021.2  -1.6  759  299           
12 05.11.12 360 (С) >10 км    ясно 
-1 -2.4 90 1021.2  -0.4  759  307           
15 05.11.12 050 (СВ) >10 км    ясно 
-3 -3.7 95 -3  1021.1  -0.3  758  309           
18 05.11.12 020 (С) >10 км    3/0 верхняя 
[Cc]
-3.2 -4.9 88 -4  1020.8  -0.3  758  310           
00 06.11.12 360 (С) >10 км    1/0 верхняя 
[Cs]
-2.9 -4.9 86 -2  1021.1  0.4  758  309  -4.9         
03 06.11.12 050 (СВ) >10 км    ясно 
+4 -3.2 59 +5  1020.2  -0.5  758  301           
06 06.11.12 360 (С) >10 км    ясно 
+7.4 -2.3 50 +8  1018.7  -1.4  757  297           
09 06.11.12 020 (С) >10 км    ясно 
+0.8 -4.5 68 +1  1019.6  0.6  757  305    +7.8       
12 06.11.12 360 (С) >10 км    ясно 
-0.9 -4.4 77 1019.6  757  307           
15 06.11.12 360 (С) >10 км    ясно 
-3 -4.7 88 -4  1020.4  0.6  758  309           
18 06.11.12 360 (С) >10 км    ясно 
-2.5 -5.1 82 -4  1019  -1.2  757  308           
00 07.11.12 050 (СВ) >10 км    10/0 средняя 
[Ac und]
-2.4 -5 82 -3  1018  -0.6  756  308  -4.3         
03 07.11.12 360 (С) >10 км    10/0 средняя 
[Ac As]
+3.3 -1.7 70 +3  1016.5  -1.3  755  301           
06 07.11.12 090 (В) >10 км    10/0 средняя 
[Ac As]
+5.4 -1.3 62 +5  1015.9  -0.6  755  298           
12 07.11.12 050 (СВ) >10 км    10/6 1300 м средняя 
[Sc|Ac und]
+1.6 -1.2 82 +2  1016.3  0.2  755  303           
15 07.11.12 070 (В) 10 км  слаб. дождь  10/10 200 м 
[Ns]
+1.1 -0.3 90 1016.3  755  303           
18 07.11.12 070 (В) 10 км  {дождь}  10/10 300 м 
[Sc|Ns]
+0.9 -0.8 88 +2  1016.3  0.2  755  303           
21 07.11.12 110 (В) 10 км    10/10 930 м 
[Sc]
+3 -0.8 76 +2  1016.3  755  301  +0.3    0.0    замёрзшая 
00 08.11.12 070 (В) 2000 м  снег  10/10 300 м 
[Ns]
+0.5 +0.2 98 1017.5  756  304           
09 08.11.12 090 (В) 10 км  слаб. дождь  10/10 660 м 
[Frnb|Ns]
+1.7 +0.6 92 +1  1019.5  757  303    +2.4     
18 08.11.12 050 (СВ) 4000 м  слаб. снег{дождь}  10/4 300 м средняя 
[Frnb|Ac As]
+1.2 +0.9 98 +1  1023.6  1.2  760  305           
21 08.11.12 360 (С) 4000 м  слаб. снег  10/10 300 м 
[Frnb|Ns]
+0.8 +0.5 98 +1  1025.7  762  306  +0.3      мокрый или
старый снег
50-90% 
00 09.11.12 360 (С) 10 км  в посл. час снег  10/8 300 м средняя 
[Frnb|Ac As]
+0.9 +0.6 98 +2  1027.6  1.9  763  306           
03 09.11.12 090 (В) 10 км  слаб. дождь  10/0 средняя 
[As op]
+2.8 -0.2 81 +2  1028.2  0.8  764  305           
06 09.11.12 050 (СВ) 10 км  слаб. морось{дождь}  10/5 300 м средняя 
[St|As op]
+2.8 +1 88 +2  1030.1  1.9  765  305           
09 09.11.12 360 (С) 10 км  {морось}  10/6 1110 м средняя 
[Sc|Ac lent]
+1.6 +0.8 94 +2  1030.3  765  306    +3.1  0.9     
Время (UTC), дата Ветер
(°,м/с) 
Видим.   Явления Облачность Т
(°С)
Тd
(°С)
f(%) Тe
(°С)
Pmin
(гПа)
dP
(гПа)
Po
(мм)
O2
(г/м3)
Тmin Tmax R s Состояние
почвы